Hurricane Symbol View the latest observations near Atlantic Tropical Depression Alberto.

Station ICAC1 - 9410840 - Santa Monica Pier Image indicating link to RSS feed of recent meteorological observations for station ICAC1


Conditions at ICAC1 as of
(8:48 am PDT)
1548 GMT on 06/20/2024:
     

Click on the graph icon in the table below to see a time series plot of the last five days of that observation.

5-day plot - Atmospheric Pressure Atmospheric Pressure (PRES):29.83 in
5-day plot - Air Temperature Air Temperature (ATMP): 63.1 °F
5-day plot - Water Temperature Water Temperature (WTMP): 67.6 °F
NOS Water Level Observation Network Water Level
Previous observations
TIME
(PDT)
5-day plot - Wind Direction
WDIR
 
5-day plot - Wind Speed
WSPD
kts
5-day plot - Wind Gust
GST
kts
5-day plot - Wave Height
WVHT
ft
5-day plot - Dominant Wave Period
DPD
sec
5-day plot - Average Wave Period
APD
sec
5-day plot - Mean Wave Direction
MWD
 
5-day plot - Atmospheric Pressure
PRES
in
5-day plot - Pressure Tendency
PTDY
in
5-day plot - Air Temperature
ATMP
°F
5-day plot - Water Temperature
WTMP
°F
5-day plot - Dew Point
DEWP
°F
5-day plot - Salinity
SAL
psu
5-day plot - Visibility
VIS
nmi
5-day plot - Tide (above MLLW)
TIDE
ft
2024-06-20 08:42 am-------29.83- 63.5 67.6----
2024-06-20 08:36 am-------29.83- 63.3 67.6----
2024-06-20 08:30 am-------29.83- 63.3 67.6----
2024-06-20 08:24 am-------29.83- 63.3 67.6----
2024-06-20 08:18 am-------29.83- 63.3 67.6----
2024-06-20 08:12 am-------29.83- 63.5 67.6----
2024-06-20 08:06 am-------29.83- 63.1 67.6----
2024-06-20 08:00 am-------29.83+0.03 63.3 67.6----
2024-06-20 07:54 am-------29.82- 63.1 67.5----
2024-06-20 07:48 am-------29.82- 63.0 67.5----
2024-06-20 07:42 am-------29.82- 62.6 67.5----
2024-06-20 07:36 am-------29.82- 62.4 67.5----
2024-06-20 07:30 am-------29.82- 62.6 67.5----
2024-06-20 07:24 am-------29.82- 62.4 67.5----
2024-06-20 07:18 am-------29.82- 62.1 67.5----
2024-06-20 07:12 am-------29.82- 61.9 67.3----
2024-06-20 07:06 am-------29.82- 62.1 67.3----
2024-06-20 07:00 am-------29.82+0.02 62.1 67.1----
2024-06-20 06:54 am-------29.82- 62.1 67.1----
2024-06-20 06:48 am-------29.82- 62.1 66.9----
2024-06-20 06:42 am-------29.82- 61.9 66.9----
2024-06-20 06:36 am-------29.82- 62.1 66.9----
2024-06-20 06:30 am-------29.82- 62.1 66.7----
2024-06-20 06:24 am-------29.81- 62.1 66.6----
2024-06-20 06:18 am-------29.81- 61.9 66.7----
2024-06-20 06:12 am-------29.81- 61.7 66.7----
2024-06-20 06:06 am-------29.81- 61.5 66.7----
2024-06-20 06:00 am-------29.80+0.00 61.3 66.7----
2024-06-20 05:54 am-------29.80- 61.3 66.7----
2024-06-20 05:48 am-------29.80- 61.3 66.7----
2024-06-20 05:42 am-------29.80- 61.3 66.7----
2024-06-20 05:36 am-------29.80- 61.3 66.7----
2024-06-20 05:30 am-------29.80- 61.3 66.7----
2024-06-20 05:24 am-------29.79- 61.3 66.9----
2024-06-20 05:18 am-------29.79- 61.3 66.7----
2024-06-20 05:12 am-------29.79- 61.3 66.7----
2024-06-20 05:06 am-------29.79- 61.5 66.9----
2024-06-20 05:00 am-------29.79-0.01 61.3 66.9----
2024-06-20 04:54 am-------29.80- 61.3 66.9----
2024-06-20 04:48 am-------29.80- 61.3 66.9----
2024-06-20 04:42 am-------29.80- 61.3 67.1----
2024-06-20 04:36 am-------29.80- 61.3 67.1----
2024-06-20 04:30 am-------29.80- 61.2 67.1----
2024-06-20 04:24 am-------29.80- 61.5 67.1----
2024-06-20 04:18 am-------29.80- 61.3 67.3----
2024-06-20 04:12 am-------29.80- 61.5 67.3----
2024-06-20 04:06 am-------29.80- 61.3 67.3----
2024-06-20 04:00 am-------29.80-0.03 61.3 67.3----
2024-06-20 03:54 am-------29.80- 61.5 67.3----
2024-06-20 03:48 am-------29.80- 61.3 67.3----
2024-06-20 03:42 am-------29.80- 61.5 67.3----
2024-06-20 03:36 am-------29.80- 61.5 67.3----
2024-06-20 03:30 am-------29.80- 61.5 67.3----
2024-06-20 03:24 am-------29.80- 61.3 67.3----
2024-06-20 03:18 am-------29.80- 61.3 67.3----
2024-06-20 03:12 am-------29.80- 61.3 67.5----
2024-06-20 03:06 am-------29.80- 61.5 67.5----
2024-06-20 03:00 am-------29.80-0.03 61.5 67.5----
2024-06-20 02:54 am-------29.80- 61.7 67.6----
2024-06-20 02:48 am-------29.80- 61.5 67.6----
2024-06-20 02:42 am-------29.80- 61.5 67.6----
2024-06-20 02:36 am-------29.80- 61.5 67.6----
2024-06-20 02:30 am-------29.80- 61.5 67.6----
2024-06-20 02:24 am-------29.80- 61.3 67.8----
2024-06-20 02:18 am-------29.80- 61.5 67.8----
2024-06-20 02:12 am-------29.80- 61.5 68.0----
2024-06-20 02:06 am-------29.80- 61.7 67.8----
2024-06-20 02:00 am-------29.80-0.04 61.7 67.8----
2024-06-20 01:54 am-------29.81- 62.1 67.8----
2024-06-20 01:48 am-------29.81- 62.1 67.8----
2024-06-20 01:42 am-------29.81- 62.1 67.8----
2024-06-20 01:36 am-------29.82- 62.2 67.8----
2024-06-20 01:30 am-------29.82- 62.4 67.8----
2024-06-20 01:24 am-------29.82- 62.2 67.6----
2024-06-20 01:18 am-------29.82- 62.4 67.6----
2024-06-20 01:12 am-------29.82- 62.4 67.6----
2024-06-20 01:06 am-------29.82- 62.4 67.6----
2024-06-20 01:00 am-------29.83-0.02 62.2 67.6----
2024-06-20 12:54 am-------29.83- 62.2 67.6----
2024-06-20 12:48 am-------29.83- 62.4 67.5----
2024-06-20 12:42 am-------29.83- 62.4 67.6----
2024-06-20 12:36 am-------29.83- 62.4 67.6----
2024-06-20 12:30 am-------29.83- 62.4 67.6----
2024-06-20 12:24 am-------29.83- 62.4 67.5----
2024-06-20 12:18 am-------29.83- 62.6 67.5----
2024-06-20 12:12 am-------29.83- 62.6 67.5----
2024-06-20 12:06 am-------29.83- 62.6 67.5----
2024-06-20 12:00 am-------29.83+0.00 62.6 67.3----
2024-06-19 11:54 pm-------29.83- 62.6 67.5----
2024-06-19 11:48 pm-------29.83- 62.6 67.3----
2024-06-19 11:42 pm-------29.83- 62.8 67.1----
2024-06-19 11:36 pm-------29.84- 62.6 67.1----
2024-06-19 11:30 pm-------29.84- 62.6 67.3----
2024-06-19 11:24 pm-------29.84- 62.6 67.3----
2024-06-19 11:18 pm-------29.84- 62.8 67.3----
2024-06-19 11:12 pm-------29.84- 62.8 67.1----
2024-06-19 11:06 pm-------29.84- 62.6 66.9----
2024-06-19 11:00 pm-------29.84+0.02 62.6 67.1----
2024-06-19 10:54 pm-------29.84- 62.8 67.1----
2024-06-19 10:48 pm-------29.84- 62.8 66.9----
2024-06-19 10:42 pm-------29.84- 62.8 66.9----
2024-06-19 10:36 pm-------29.84- 62.8 67.1----
2024-06-19 10:30 pm-------29.84- 62.8 67.6----
2024-06-19 10:24 pm-------29.85- 62.8 67.6----
2024-06-19 10:18 pm-------29.85- 63.0 67.8----
2024-06-19 10:12 pm-------29.85- 62.8 67.8----
2024-06-19 10:06 pm-------29.84- 63.0 67.5----
2024-06-19 10:00 pm-------29.84+0.02 63.0 67.3----
2024-06-19 09:54 pm-------29.84- 62.8 67.1----
2024-06-19 09:48 pm-------29.84- 62.8 67.1----
2024-06-19 09:42 pm-------29.84- 62.8 67.5----
2024-06-19 09:36 pm-------29.84- 62.8 67.3----
2024-06-19 09:30 pm-------29.84- 62.8 67.3----
2024-06-19 09:24 pm-------29.84- 63.0 67.3----
2024-06-19 09:18 pm-------29.84- 63.1 67.5----
2024-06-19 09:12 pm-------29.84- 63.0 67.5----
2024-06-19 09:06 pm-------29.84- 63.0 67.6----
2024-06-19 09:00 pm-------29.83+0.01 63.0 67.8----
2024-06-19 08:54 pm-------29.83- 63.1 68.0----
2024-06-19 08:48 pm-------29.83- 62.8 68.0----
2024-06-19 08:42 pm-------29.83- 62.8 68.2----
2024-06-19 08:36 pm-------29.83- 63.0 68.0----
2024-06-19 08:30 pm-------29.83- 63.0 68.2----
2024-06-19 08:24 pm-------29.83- 62.8 68.4----
2024-06-19 08:18 pm-------29.83- 63.1 68.4----
2024-06-19 08:12 pm-------29.83- 63.0 68.4----
2024-06-19 08:06 pm-------29.82- 63.3 68.4----
2024-06-19 08:00 pm-------29.82-0.01 63.1 68.4----
2024-06-19 07:54 pm-------29.82- 63.3 68.4----
2024-06-19 07:48 pm-------29.82- 63.3 68.2----
2024-06-19 07:42 pm-------29.82- 63.1 68.2----
2024-06-19 07:36 pm-------29.82- 63.5 68.2----
2024-06-19 07:30 pm-------29.82- 63.7 68.2----
2024-06-19 07:24 pm-------29.82- 63.9 68.0----
2024-06-19 07:18 pm-------29.82- 63.5 67.8----
2024-06-19 07:12 pm-------29.82- 63.7 68.0----
2024-06-19 07:06 pm-------29.82- 63.9 68.2----
2024-06-19 07:00 pm-------29.82-0.03 64.0 68.0----
2024-06-19 06:54 pm-------29.82- 63.9 67.8----
2024-06-19 06:48 pm-------29.82- 64.0 68.0----
2024-06-19 06:42 pm-------29.82- 64.2 68.0----
2024-06-19 06:36 pm-------29.82- 64.6 67.8----
2024-06-19 06:30 pm-------29.82- 64.6 67.8----
2024-06-19 06:24 pm-------29.82- 64.4 67.8----
2024-06-19 06:18 pm-------29.82- 64.4 68.0----
2024-06-19 06:12 pm-------29.82- 64.4 68.0----
2024-06-19 06:06 pm-------29.82- 64.6 68.0----
2024-06-19 06:00 pm-------29.82-0.03 64.4 68.0----
2024-06-19 05:54 pm-------29.82- 64.4 68.2----
2024-06-19 05:48 pm-------29.82- 64.4 68.2----
2024-06-19 05:42 pm-------29.82- 64.4 68.2----
2024-06-19 05:36 pm-------29.82- 64.6 68.2----
2024-06-19 05:30 pm-------29.83- 64.8 68.2----
2024-06-19 05:24 pm-------29.83- 64.4 68.2----
2024-06-19 05:18 pm-------29.83- 64.4 68.2----
2024-06-19 05:12 pm-------29.83- 64.4 68.2----
2024-06-19 05:06 pm-------29.83- 64.6 68.0----
2024-06-19 05:00 pm-------29.83-0.03 64.8 68.0----
2024-06-19 04:54 pm-------29.84- 64.6 68.0----
2024-06-19 04:48 pm-------29.84- 64.8 68.0----
2024-06-19 04:42 pm-------29.84- 64.6 68.0----
2024-06-19 04:36 pm-------29.84- 64.8 68.2----
2024-06-19 04:30 pm-------29.84- 64.6 68.2----
2024-06-19 04:24 pm-------29.84- 64.4 68.2----
2024-06-19 04:18 pm-------29.84- 64.6 68.2----
2024-06-19 04:12 pm-------29.84- 64.8 68.2----
2024-06-19 04:06 pm-------29.84- 64.4 68.4----
2024-06-19 04:00 pm-------29.85-0.03 64.6 68.4----
2024-06-19 03:54 pm-------29.85- 64.4 68.4----
2024-06-19 03:48 pm-------29.85-- 68.4----
2024-06-19 03:42 pm-------29.85-- 68.4----
2024-06-19 03:36 pm-------29.85-- 68.4----
2024-06-19 03:30 pm-------29.85- 64.9 68.5----
2024-06-19 03:24 pm-------29.85- 65.1 68.5----
2024-06-19 03:18 pm-------29.85- 65.1-----
2024-06-19 03:12 pm-------29.85- 65.1-----
2024-06-19 03:06 pm-------29.85- 64.9-----
2024-06-19 03:00 pm-------29.85-0.02 64.9 68.4----
2024-06-19 02:54 pm-------29.86- 64.8 68.4----
2024-06-19 02:48 pm-------29.86- 65.1 68.4----
2024-06-19 02:42 pm-------29.86- 64.9 68.5----
2024-06-19 02:36 pm-------29.86- 64.8 68.5----
2024-06-19 02:30 pm-------29.86- 64.8 68.5----
2024-06-19 02:24 pm-------29.86- 64.8 68.5----
2024-06-19 02:18 pm-------29.86- 64.8 68.5----
2024-06-19 02:12 pm-------29.86- 64.9 68.5----
2024-06-19 02:06 pm-------29.87- 64.8 68.5----
2024-06-19 02:00 pm-------29.87+0.00 65.1 68.5----
2024-06-19 01:54 pm-------29.87- 65.1 68.4----
2024-06-19 01:48 pm-------29.87- 65.1 68.4----
2024-06-19 01:42 pm-------29.87- 65.3 68.4----
2024-06-19 01:36 pm-------29.87- 65.3 68.4----
2024-06-19 01:30 pm-------29.87- 65.1 68.4----
2024-06-19 01:24 pm-------29.87- 65.3 68.4----
2024-06-19 01:18 pm-------29.87- 65.1 68.4----
2024-06-19 01:12 pm-------29.87- 65.1 68.4----
2024-06-19 01:06 pm-------29.88- 65.1 68.5----
2024-06-19 01:00 pm-------29.88+0.01 64.9 68.5----
2024-06-19 12:54 pm-------29.87- 65.1 68.5----
2024-06-19 12:48 pm-------29.88- 65.1 68.5----
2024-06-19 12:42 pm-------29.88- 64.9 68.5----
2024-06-19 12:36 pm-------29.88- 64.9 68.4----
2024-06-19 12:30 pm-------29.88- 64.8 68.4----
2024-06-19 12:24 pm-------29.88- 64.6 68.4----
2024-06-19 12:18 pm-------29.88- 64.6 68.2----
2024-06-19 12:12 pm-------29.88- 64.8 68.2----
2024-06-19 12:06 pm-------29.88- 64.6 68.2----
2024-06-19 12:00 pm-------29.88+0.02 64.6 68.0----
2024-06-19 11:54 am-------29.88- 64.6 67.8----
2024-06-19 11:48 am-------29.88- 64.6 67.8----
2024-06-19 11:42 am-------29.88- 64.8 67.8----
2024-06-19 11:36 am-------29.88- 64.4 67.8----
2024-06-19 11:30 am-------29.88- 64.4 67.6----
2024-06-19 11:24 am-------29.88- 64.2 67.6----
2024-06-19 11:18 am-------29.88- 64.4 67.6----
2024-06-19 11:12 am-------29.87- 64.2 67.6----
2024-06-19 11:06 am-------29.87- 64.2 67.6----
2024-06-19 11:00 am-------29.87+0.03 64.2 67.6----
2024-06-19 10:54 am-------29.87- 64.4 67.6----
2024-06-19 10:48 am-------29.87- 64.2 67.6----
2024-06-19 10:42 am-------29.87- 64.2 67.6----
2024-06-19 10:36 am-------29.87- 64.2 67.6----
2024-06-19 10:30 am-------29.87- 64.0 67.6----
2024-06-19 10:24 am-------29.87- 64.0 67.6----
2024-06-19 10:18 am-------29.87- 63.9 67.6----
2024-06-19 10:12 am-------29.87- 64.0 67.5----
2024-06-19 10:06 am-------29.87- 64.0 67.5----
2024-06-19 10:00 am-------29.87+0.04 64.0 67.5----
2024-06-19 09:54 am-------29.86- 64.0 67.6----
2024-06-19 09:48 am-------29.86- 64.0 67.6----
2024-06-19 09:42 am-------29.86- 63.9 67.6----
2024-06-19 09:36 am-------29.86- 63.9 67.5----
2024-06-19 09:30 am-------29.86- 63.9 67.5----
2024-06-19 09:24 am-------29.86- 63.9 67.5----
2024-06-19 09:18 am-------29.86- 63.9 67.5----
2024-06-19 09:12 am-------29.86- 63.9 67.5----
2024-06-19 09:06 am-------29.86- 63.9 67.5----
2024-06-19 09:00 am-------29.86+0.04 63.9 67.5----
2024-06-19 08:54 am-------29.85- 63.7 67.5----